Weather History for Kenansville, NC

Change the Weather History Date:

Friday, March 2, 2012

  Actual Average (KGSB) Record (KGSB)
Temperature  
Mean Temperature 60 °F -  
Max Temperature 68 °F 59 °F 80 °F (2006)
Min Temperature 51 °F 39 °F 26 °F (2009)
Degree Days  
Heating Degree Days 6    
Growing Degree Days 10 (Base 50)    
Moisture  
Dew Point 57 °F    
Average Humidity 92    
Maximum Humidity 100    
Minimum Humidity 78    
Precipitation  
Precipitation 0.01 in - - ()
Sea Level Pressure  
Sea Level Pressure 29.91 in    
Wind  
Wind Speed 3 mph (SE)    
Max Wind Speed 7 mph    
Max Gust Speed -    
Visibility 4 miles    
Events Fog , Rain    
Averages and records for this station are not official NWS values.
T = Trace of Precipitation, MM = Missing Value Source: NWS Daily Summary

Daily Weather History Graph

Daily Weather History Graph

Search for Another Location

Airport:

Trip Planner

Search our weather history database for the weather conditions in past years. The results will help you decide how hot, cold, wet, or windy it might be!

Date:

Astronomy

Mar. 02, 2012 Rise Set
Actual Time 6:39 AM EST 6:08 PM EST
Civil Twilight 6:14 AM EST 6:34 PM EST
Nautical Twilight 5:44 AM EST 7:03 PM EST
Astronomical Twilight 5:15 AM EST 7:33 PM EST
Moon 12:29 PM EST (3/2) 2:17 AM EST (3/2)
Length of Visible Light 12h 20m
Length of Day
11h 29m
Waxing Gibbous, 66% of the Moon is Illuminated
Mar 2
Waxing Gibbous
Mar 8
Full
Mar 14
Last Quarter
Mar 22
New
Mar 30
First Quarter

Hourly Weather History & Observations

Time (EST) Temp. Dew Point Humidity Pressure Visibility Wind Dir Wind Speed Gust Speed Precip Events Conditions
12:15 AM 62.6 °F 59.0 °F 88% 29.90 in 10.0 mi SW 4.6 mph - N/A   Clear
12:35 AM 62.6 °F 59.0 °F 88% 29.91 in 10.0 mi West 3.5 mph - N/A   Clear
12:55 AM 62.6 °F 59.0 °F 88% 29.92 in 10.0 mi Calm Calm - N/A   Clear
1:15 AM 59.0 °F 57.2 °F 94% 29.92 in 7.0 mi Calm Calm - N/A   Clear
1:35 AM 59.0 °F 57.2 °F 94% 29.92 in 5.0 mi WSW 3.5 mph - N/A   Clear
1:55 AM 59.0 °F 57.2 °F 94% 29.92 in 5.0 mi Calm Calm - N/A   Clear
2:15 AM 55.4 °F 55.4 °F 100% 29.91 in 3.0 mi Calm Calm - N/A   Clear
2:35 AM 55.4 °F 55.4 °F 100% 29.90 in 1.0 mi Calm Calm - N/A   Mostly Cloudy
2:55 AM 55.4 °F 53.6 °F 94% 29.90 in 0.5 mi Calm Calm - N/A Fog Fog
3:15 AM 55.4 °F 53.6 °F 94% 29.91 in 0.8 mi Calm Calm - N/A   Mostly Cloudy
3:35 AM 53.6 °F 51.8 °F 94% 29.91 in 4.0 mi Calm Calm - N/A   Clear
3:55 AM 53.6 °F 53.6 °F 100% 29.91 in 3.0 mi Calm Calm - N/A   Clear
4:15 AM 51.8 °F 51.8 °F 100% 29.92 in 1.2 mi Calm Calm - N/A   Mostly Cloudy
4:35 AM 51.8 °F 51.8 °F 100% 29.92 in 0.2 mi Calm Calm - N/A Fog Fog
4:55 AM 53.6 °F 53.6 °F 100% 29.93 in 0.5 mi NNE 3.5 mph - N/A Fog Fog
5:15 AM 55.4 °F 55.4 °F 100% 29.94 in 7.0 mi NNE 5.8 mph - N/A   Overcast
5:55 AM 53.6 °F 53.6 °F 100% 29.96 in 4.0 mi NE 3.5 mph - N/A   Overcast
6:35 AM 51.8 °F 51.8 °F 100% 29.97 in 2.0 mi ENE 4.6 mph - N/A   Overcast
6:55 AM 51.8 °F 51.8 °F 100% 29.97 in 0.8 mi Calm Calm - N/A   Overcast
7:15 AM 51.8 °F 51.8 °F 100% 29.96 in 0.2 mi ENE 3.5 mph - N/A Fog Fog
7:35 AM 51.8 °F 51.8 °F 100% 29.97 in 0.5 mi ENE 3.5 mph - N/A Fog Fog
7:55 AM 51.8 °F 51.8 °F 100% 29.99 in 0.8 mi East 5.8 mph - N/A   Overcast
8:15 AM 53.6 °F 51.8 °F 94% 30.00 in 1.2 mi ESE 5.8 mph - N/A   Overcast
8:35 AM 53.6 °F 51.8 °F 94% 30.01 in 1.0 mi ESE 3.5 mph - N/A   Overcast
8:55 AM 53.6 °F 51.8 °F 94% 30.00 in 0.8 mi East 3.5 mph - N/A   Overcast
9:15 AM 53.6 °F 53.6 °F 100% 30.00 in 0.5 mi ESE 5.8 mph - N/A Fog Fog
9:35 AM 53.6 °F 53.6 °F 100% 30.01 in 1.0 mi East 5.8 mph - N/A   Overcast
9:55 AM 53.6 °F 53.6 °F 100% 29.99 in 1.5 mi ENE 3.5 mph - N/A   Overcast
10:15 AM 55.4 °F 53.6 °F 94% 29.98 in 1.8 mi NE 4.6 mph - N/A   Overcast
10:35 AM 55.4 °F 53.6 °F 94% 29.96 in 3.0 mi East 6.9 mph - N/A   Overcast
10:55 AM 55.4 °F 53.6 °F 94% 29.98 in 5.0 mi East 4.6 mph - N/A   Overcast
11:15 AM 57.2 °F 53.6 °F 88% 29.98 in 5.0 mi ESE 4.6 mph - N/A   Overcast
11:35 AM 57.2 °F 53.6 °F 88% 29.98 in 4.0 mi Calm Calm - N/A Rain Light Rain
11:55 AM 57.2 °F 55.4 °F 94% 29.97 in 3.0 mi Calm Calm - 0.01 in Rain Light Rain
12:15 PM 59.0 °F 55.4 °F 88% 29.95 in 3.0 mi ESE 3.5 mph - N/A Rain Light Rain
12:35 PM 59.0 °F 55.4 °F 88% 29.94 in 5.0 mi SSE 3.5 mph - N/A   Overcast
12:55 PM 60.8 °F 57.2 °F 88% 29.92 in 5.0 mi ESE 4.6 mph - N/A   Overcast
1:15 PM 62.6 °F 59.0 °F 88% 29.90 in 5.0 mi SE 5.8 mph - N/A   Overcast
1:35 PM 62.6 °F 59.0 °F 88% 29.89 in 5.0 mi SE 5.8 mph - N/A   Overcast
1:55 PM 64.4 °F 59.0 °F 83% 29.88 in 7.0 mi SSE 4.6 mph - N/A   Mostly Cloudy
2:15 PM 66.2 °F 60.8 °F 83% 29.87 in 7.0 mi SE 6.9 mph - N/A   Scattered Clouds
2:35 PM 66.2 °F 60.8 °F 83% 29.87 in 7.0 mi SSE 5.8 mph - N/A   Mostly Cloudy
2:55 PM 68.0 °F 60.8 °F 78% 29.87 in 7.0 mi Calm Calm - N/A   Overcast
3:15 PM 68.0 °F 60.8 °F 78% 29.87 in 7.0 mi South 3.5 mph - N/A   Overcast
3:35 PM 68.0 °F 60.8 °F 78% 29.85 in 7.0 mi SSE 5.8 mph - N/A   Mostly Cloudy
3:55 PM 66.2 °F 60.8 °F 83% 29.86 in 5.0 mi Calm Calm - N/A   Haze
4:15 PM 66.2 °F 60.8 °F 83% 29.86 in 5.0 mi Calm Calm - N/A   Haze
4:35 PM 66.2 °F 60.8 °F 83% 29.85 in 5.0 mi SSE 4.6 mph - N/A   Haze
4:55 PM 66.2 °F 60.8 °F 83% 29.85 in 5.0 mi SE 4.6 mph - N/A   Haze
5:15 PM 66.2 °F 60.8 °F 83% 29.85 in 5.0 mi SE 4.6 mph - N/A   Haze
5:55 PM 64.4 °F 62.6 °F 94% 29.84 in 4.0 mi SE 4.6 mph - N/A   Overcast
6:15 PM 64.4 °F 60.8 °F 88% 29.83 in 5.0 mi SE 4.6 mph - N/A   Mostly Cloudy
6:55 PM 62.6 °F 60.8 °F 94% 29.82 in 4.0 mi SSE 4.6 mph - N/A   Clear
7:15 PM 62.6 °F 60.8 °F 94% 29.82 in 4.0 mi SE 6.9 mph - N/A   Clear
7:35 PM 62.6 °F 60.8 °F 94% 29.82 in 4.0 mi SSE 4.6 mph - N/A   Scattered Clouds
7:55 PM 62.6 °F 60.8 °F 94% 29.82 in 5.0 mi SSE 4.6 mph - N/A   Clear
8:35 PM 62.6 °F 59.0 °F 88% 29.81 in 10.0 mi South 3.5 mph - N/A   Mostly Cloudy
8:55 PM 62.6 °F 59.0 °F 88% 29.81 in 10.0 mi South 4.6 mph - N/A   Scattered Clouds
9:15 PM 62.6 °F 59.0 °F 88% 29.80 in 10.0 mi South 3.5 mph - N/A   Clear
9:35 PM 62.6 °F 59.0 °F 88% 29.80 in 10.0 mi South 4.6 mph - N/A   Clear
9:55 PM 62.6 °F 59.0 °F 88% 29.80 in 10.0 mi Calm Calm - N/A   Clear
10:15 PM 60.8 °F 59.0 °F 94% 29.80 in 10.0 mi Calm Calm - N/A   Clear
10:55 PM 60.8 °F 59.0 °F 94% 29.79 in 10.0 mi South 4.6 mph - N/A   Clear
11:15 PM 60.8 °F 59.0 °F 94% 29.77 in 10.0 mi South 5.8 mph - N/A   Clear
11:35 PM 60.8 °F 59.0 °F 94% 29.77 in 10.0 mi South 3.5 mph - N/A   Clear
11:55 PM 62.6 °F 59.0 °F 88% 29.77 in 10.0 mi South 5.8 mph - N/A   Clear